Terug naar catalogus

THOR BURNER 2 R/B

ActiefSSO
NORAD 7817·ROCKET BODY·🇺🇸 United States

Gelanceerd May 24, 1975 vanaf Vandenberg Space Force Base

Loading…

Volgende Passages (komende 24 uur)

TLE

VersSource: Space-Track

Epoch: Sep 14, 2026, 19:23 UTC

1 07817U 75043B   26257.80814021  .00000034  00000-0  35898-4 0  9992
2 07817  98.6674 101.5376 0052510 211.6452 148.1565 14.19846876376114

Volg THOR BURNER 2 R/B in realtime met AllMySat

Download on the App Store